QPF
0.04 0.05 0.04 0.03 0.03 0.03 0.03 0.04 0.03 0.02 0.02 0.02 0.03 0.03 0.04 0.04 0.04 0.04 0.03 0.04 0.04 0.03 0.02 0.01 0.02 0.02 0.04 0.07 0.08 0.05 0.04 0.05 0.05 0.04 0.04 0.03 0.03 0.04 0.04 0.05 0.05 0.05 0.04 0.04
0.05 0.04 0.03 0.02 0.02 0.02 0.04 0.04 0.02 0.02 0.02 0.02 0.02 0.03 0.04 0.04 0.04 0.04 0.03 0.03 0.04 0.04 0.03 0.02 0.02 0.02 0.03 0.05 0.06 0.05 0.04 0.05 0.05 0.05 0.04 0.04 0.03 0.04 0.04 0.05 0.06 0.07 0.08 0.07
0.05 0.03 0.03 0.03 0.03 0.04 0.04 0.03 0.02 0.02 0.02 0.02 0.03 0.04 0.05 0.04 0.04 0.04 0.04 0.03 0.03 0.03 0.04 0.02 0.02 0.02 0.02 0.02 0.03 0.04 0.04 0.05 0.06 0.05 0.05 0.05 0.04 0.02 0.02 0.02 0.03 0.04 0.06 0.07
0.04 0.03 0.03 0.04 0.04 0.03 0.04 0.03 0.02 0.02 0.03 0.03 0.03 0.05 0.05 0.04 0.04 0.03 0.03 0.02 0.02 0.01 0.01 0.02 0.01 0.01 0.01 0.01 0.02 0.02 0.03 0.03 0.04 0.06 0.06 0.04 0.04 0.03 0.02 0.01 0.02 0.02 0.04 0.05
0.04 0.03 0.03 0.03 0.03 0.03 0.03 0.02 0.02 0.03 0.03 0.03 0.02 0.03 0.03 0.02 0.02 0.01 0.01 0.01 0.01 0.01 0.01 0.01 0.01 0.01 0.01 0.01 0.01 0.01 0.01 0.02 0.02 0.03 0.05 0.07 0.05 0.03 0.02 0.02 0.02 0.03 0.03 0.02
0.03 0.03 0.03 0.02 0.02 0.02 0.03 0.04 0.03 0.03 0.04 0.04 0.02 0.01 0.01 0.01 0.01 0.01 0.01 0.00 0.00 0.00 0.00 0.01 0.01 0.01 0.01 0.01 0.00 0.00 0.00 0.01 0.02 0.02 0.02 0.04 0.06 0.07 0.04 0.02 0.01 0.01 0.01 0.01
0.03 0.03 0.03 0.02 0.03 0.03 0.04 0.05 0.07 0.07 0.06 0.04 0.01 0.01 0.01 0.00 0.00 0.00 0.00 0.00 0.00 0.00 0.00 0.00 0.01 0.01 0.01 0.01 0.00 0.00 0.00 0.01 0.01 0.01 0.01 0.01 0.02 0.04 0.06 0.04 0.02 0.01 0.02 0.02
0.03 0.04 0.04 0.02 0.04 0.05 0.05 0.04 0.04 0.04 0.02 0.01 0.01 0.01 0.01 0.00 0.00 0.00 0.00 0.00 0.00 0.00 0.00 0.00 0.00 0.00 0.01 0.01 0.00 0.00 0.00 0.01 0.01 0.02 0.01 0.01 0.02 0.03 0.04 0.05 0.04 0.02 0.01 0.02
0.02 0.03 0.03 0.03 0.02 0.02 0.03 0.02 0.01 0.01 0.01 0.01 0.01 0.01 0.00 0.00 0.00 0.00 0.00 0.00 0.00 0.00 0.00 0.00 0.00 0.00 0.00 0.00 0.00 0.00 0.00 0.01 0.01 0.02 0.01 0.02 0.02 0.04 0.07 0.06 0.04 0.03 0.02 0.02
0.02 0.02 0.02 0.03 0.02 0.01 0.01 0.01 0.01 0.01 0.02 0.01 0.01 0.01 0.00 0.00 0.00 0.00 0.00 0.00 0.00 0.00 0.00 0.00 0.00 0.00 0.00 0.00 0.00 0.00 0.00 0.01 0.02 0.03 0.03 0.03 0.04 0.05 0.07 0.07 0.05 0.05 0.04 0.03
0.01 0.02 0.02 0.02 0.02 0.02 0.01 0.01 0.01 0.01 0.01 0.01 0.01 0.00 0.00 0.00 0.00 0.00 0.00 0.00 0.00 0.00 0.00 0.00 0.00 0.00 0.00 0.00 0.01 0.01 0.01 0.01 0.02 0.04 0.04 0.04 0.04 0.04 0.05 0.07 0.06 0.04 0.04 0.04
0.01 0.01 0.01 0.02 0.03 0.02 0.01 0.01 0.01 0.00 0.00 0.00 0.00 0.00 0.00 0.00 0.00 0.00 0.00 0.00 0.00 0.00 0.00 0.00 0.00 0.00 0.00 0.00 0.00 0.01 0.01 0.01 0.01 0.02 0.03 0.03 0.03 0.03 0.04 0.06 0.05 0.04 0.04 0.04
0.01 0.01 0.01 0.01 0.02 0.02 0.01 0.00 0.00 0.00 0.00 0.00 0.00 0.00 0.00 0.00 0.00 0.00 0.00 0.00 0.00 0.00 0.00 0.00 0.00 0.00 0.00 0.00 0.01 0.01 0.01 0.00 0.00 0.01 0.01 0.01 0.02 0.02 0.04 0.04 0.03 0.03 0.02 0.03
0.00 0.01 0.00 0.00 0.00 0.01 0.01 0.00 0.00 0.00 0.00 0.00 0.00 0.00 0.00 0.00 0.00 0.00 0.00 0.00 0.00 0.00 0.00 0.00 0.00 0.00 0.00 0.01 0.01 0.01 0.01 0.01 0.01 0.01 0.01 0.01 0.01 0.02 0.02 0.02 0.02 0.02 0.02 0.02
0.00 0.01 0.00 0.00 0.00 0.00 0.00 0.00 0.00 0.00 0.00 0.00 0.00 0.00 0.01 0.00 0.00 0.00 0.00 0.00 0.00 0.00 0.00 0.00 0.00 0.00 0.00 0.01 0.01 0.01 0.02 0.01 0.01 0.01 0.01 0.01 0.01 0.01 0.02 0.02 0.02 0.01 0.01 0.01
0.01 0.00 0.00 0.00 0.00 0.00 0.00 0.00 0.00 0.00 0.00 0.00 0.00 0.00 0.00 0.00 0.00 0.00 0.00 0.00 0.00 0.00 0.00 0.00 0.00 0.00 0.01 0.01 0.01 0.01 0.02 0.02 0.02 0.01 0.01 0.01 0.01 0.01 0.01 0.01 0.01 0.01 0.01 0.01
0.01 0.00 0.00 0.00 0.00 0.00 0.00 0.00 0.00 0.00 0.00 0.00 0.00 0.00 0.00 0.00 0.00 0.00 0.00 0.00 0.00 0.00 0.00 0.00 0.00 0.00 0.01 0.01 0.00 0.00 0.00 0.01 0.01 0.01 0.01 0.01 0.01 0.01 0.01 0.01 0.01 0.01 0.01 0.02
0.01 0.00 0.00 0.00 0.00 0.00 0.00 0.00 0.00 0.00 0.00 0.00 0.00 0.00 0.00 0.00 0.00 0.00 0.00 0.00 0.00 0.00 0.00 0.00 0.00 0.01 0.01 0.01 0.01 0.00 0.00 0.00 0.01 0.01 0.02 0.01 0.01 0.01 0.01 0.01 0.01 0.01 0.01 0.02
0.00 0.01 0.01 0.01 0.00 0.00 0.00 0.00 0.00 0.00 0.00 0.00 0.00 0.00 0.00 0.00 0.00 0.00 0.00 0.00 0.00 0.00 0.00 0.00 0.00 0.01 0.01 0.01 0.01 0.01 0.01 0.01 0.01 0.02 0.02 0.02 0.02 0.01 0.01 0.01 0.01 0.01 0.01 0.02
0.01 0.01 0.01 0.01 0.00 0.00 0.00 0.00 0.00 0.00 0.00 0.00 0.00 0.00 0.00 0.00 0.00 0.00 0.00 0.00 0.00 0.00 0.00 0.00 0.00 0.00 0.01 0.01 0.01 0.01 0.01 0.01 0.02 0.02 0.03 0.02 0.02 0.02 0.02 0.01 0.01 0.01 0.01 0.02
0.01 0.02 0.01 0.01 0.00 0.00 0.00 0.00 0.00 0.00 0.00 0.00 0.00 0.00 0.00 0.00 0.00 0.00 0.00 0.00 0.00 0.00 0.00 0.00 0.00 0.00 0.00 0.01 0.01 0.01 0.01 0.02 0.02 0.02 0.01 0.01 0.01 0.01 0.01 0.01 0.01 0.01 0.01 0.01
0.00 0.01 0.01 0.00 0.01 0.00 0.00 0.00 0.00 0.00 0.00 0.00 0.00 0.00 0.00 0.00 0.00 0.00 0.00 0.00 0.00 0.00 0.00 0.00 0.00 0.00 0.00 0.01 0.01 0.00 0.01 0.01 0.01 0.01 0.00 0.01 0.01 0.02 0.01 0.01 0.01 0.01 0.01 0.01
0.00 0.00 0.00 0.00 0.00 0.00 0.00 0.00 0.00 0.00 0.00 0.00 0.00 0.00 0.00 0.00 0.00 0.00 0.00 0.00 0.00 0.00 0.00 0.00 0.00 0.00 0.00 0.00 0.00 0.00 0.01 0.01 0.00 0.00 0.01 0.01 0.01 0.02 0.01 0.01 0.00 0.00 0.01 0.01
0.00 0.00 0.00 0.00 0.00 0.00 0.00 0.00 0.00 0.00 0.00 0.00 0.00 0.00 0.00 0.00 0.00 0.00 0.00 0.00 0.00 0.00 0.00 0.00 0.00 0.00 0.00 0.00 0.01 0.01 0.01 0.01 0.00 0.00 0.01 0.01 0.01 0.01 0.01 0.00 0.00 0.00 0.00 0.01
0.00 0.00 0.00 0.00 0.00 0.00 0.00 0.00 0.00 0.00 0.00 0.00 0.00 0.00 0.00 0.00 0.00 0.00 0.00 0.00 0.00 0.00 0.00 0.00 0.00 0.00 0.00 0.00 0.00 0.01 0.01 0.00 0.00 0.00 0.00 0.01 0.01 0.01 0.00 0.00 0.00 0.00 0.00 0.01
0.00 0.00 0.00 0.00 0.00 0.00 0.00 0.00 0.00 0.00 0.00 0.00 0.00 0.00 0.00 0.00 0.00 0.00 0.00 0.00 0.00 0.00 0.00 0.00 0.00 0.00 0.00 0.00 0.00 0.00 0.00 0.00 0.00 0.00 0.00 0.00 0.00 0.00 0.00 0.00 0.00 0.00 0.00 0.00
MSLP
1023.32 1023.80 1024.29 1024.78 1025.22 1025.62 1025.96 1026.26 1026.52 1026.76 1027.00 1027.22 1027.43 1027.62 1027.77 1027.87 1027.91 1027.89 1027.83 1027.74 1027.66 1027.64 1027.69 1027.86 1028.13 1028.50 1028.95 1029.44 1029.91 1030.34 1030.69 1030.96 1031.15 1031.29 1031.39 1031.50 1031.64 1031.81 1032.00 1032.21 1032.39 1032.54 1032.62 1032.64
1024.49 1024.93 1025.33 1025.68 1025.97 1026.21 1026.42 1026.60 1026.78 1026.96 1027.15 1027.33 1027.50 1027.62 1027.69 1027.69 1027.63 1027.50 1027.34 1027.19 1027.06 1027.00 1027.04 1027.20 1027.47 1027.84 1028.28 1028.76 1029.23 1029.68 1030.07 1030.40 1030.67 1030.90 1031.09 1031.27 1031.46 1031.65 1031.84 1032.02 1032.18 1032.29 1032.37 1032.40
1025.69 1026.11 1026.45 1026.70 1026.87 1026.98 1027.06 1027.13 1027.21 1027.30 1027.39 1027.48 1027.53 1027.53 1027.46 1027.33 1027.14 1026.92 1026.69 1026.50 1026.36 1026.31 1026.37 1026.54 1026.81 1027.17 1027.58 1028.03 1028.48 1028.93 1029.34 1029.71 1030.05 1030.36 1030.64 1030.90 1031.13 1031.35 1031.54 1031.70 1031.83 1031.93 1032.01 1032.07
1026.82 1027.24 1027.54 1027.72 1027.80 1027.82 1027.81 1027.78 1027.76 1027.74 1027.69 1027.62 1027.49 1027.30 1027.05 1026.75 1026.42 1026.10 1025.82 1025.62 1025.51 1025.51 1025.62 1025.83 1026.11 1026.46 1026.84 1027.25 1027.66 1028.08 1028.49 1028.89 1029.28 1029.65 1030.00 1030.33 1030.61 1030.85 1031.05 1031.20 1031.33 1031.43 1031.53 1031.64
1027.78 1028.19 1028.47 1028.61 1028.66 1028.63 1028.57 1028.48 1028.36 1028.22 1028.02 1027.75 1027.40 1026.97 1026.49 1025.98 1025.49 1025.07 1024.75 1024.56 1024.50 1024.58 1024.77 1025.04 1025.36 1025.71 1026.07 1026.43 1026.79 1027.17 1027.55 1027.96 1028.37 1028.79 1029.19 1029.56 1029.89 1030.15 1030.36 1030.53 1030.67 1030.80 1030.95 1031.13
1028.48 1028.89 1029.16 1029.30 1029.34 1029.32 1029.25 1029.13 1028.96 1028.70 1028.35 1027.88 1027.29 1026.60 1025.86 1025.12 1024.46 1023.92 1023.55 1023.38 1023.39 1023.56 1023.84 1024.19 1024.57 1024.94 1025.28 1025.60 1025.91 1026.23 1026.58 1026.97 1027.38 1027.82 1028.25 1028.65 1029.01 1029.30 1029.52 1029.71 1029.87 1030.05 1030.26 1030.52
1028.92 1029.31 1029.58 1029.73 1029.81 1029.83 1029.80 1029.70 1029.50 1029.18 1028.69 1028.04 1027.21 1026.27 1025.28 1024.31 1023.46 1022.80 1022.38 1022.21 1022.28 1022.53 1022.91 1023.35 1023.78 1024.18 1024.52 1024.80 1025.07 1025.34 1025.64 1025.99 1026.40 1026.83 1027.27 1027.68 1028.05 1028.35 1028.59 1028.80 1029.00 1029.22 1029.50 1029.84
1029.13 1029.49 1029.76 1029.94 1030.08 1030.17 1030.21 1030.17 1029.99 1029.64 1029.06 1028.26 1027.25 1026.08 1024.86 1023.68 1022.66 1021.87 1021.39 1021.21 1021.30 1021.62 1022.08 1022.59 1023.08 1023.49 1023.83 1024.10 1024.32 1024.54 1024.80 1025.11 1025.49 1025.90 1026.33 1026.74 1027.10 1027.41 1027.66 1027.88 1028.11 1028.37 1028.70 1029.11
1029.21 1029.53 1029.79 1030.01 1030.21 1030.39 1030.52 1030.55 1030.42 1030.07 1029.45 1028.55 1027.40 1026.07 1024.66 1023.31 1022.14 1021.24 1020.69 1020.47 1020.58 1020.93 1021.43 1021.98 1022.50 1022.94 1023.28 1023.52 1023.71 1023.90 1024.11 1024.38 1024.72 1025.11 1025.51 1025.90 1026.25 1026.55 1026.80 1027.02 1027.26 1027.55 1027.92 1028.38
1029.27 1029.56 1029.81 1030.05 1030.30 1030.55 1030.76 1030.86 1030.78 1030.45 1029.82 1028.87 1027.64 1026.20 1024.68 1023.21 1021.93 1020.94 1020.32 1020.07 1020.15 1020.49 1021.00 1021.56 1022.09 1022.53 1022.85 1023.08 1023.25 1023.40 1023.58 1023.82 1024.12 1024.47 1024.85 1025.22 1025.55 1025.83 1026.06 1026.29 1026.53 1026.82 1027.20 1027.68
1029.43 1029.68 1029.92 1030.16 1030.43 1030.71 1030.95 1031.09 1031.04 1030.72 1030.09 1029.12 1027.86 1026.38 1024.81 1023.29 1021.96 1020.92 1020.24 1019.95 1019.99 1020.30 1020.78 1021.32 1021.83 1022.25 1022.55 1022.76 1022.90 1023.03 1023.18 1023.39 1023.66 1023.99 1024.34 1024.68 1024.99 1025.25 1025.48 1025.69 1025.92 1026.21 1026.59 1027.06
1029.78 1030.00 1030.20 1030.42 1030.66 1030.91 1031.12 1031.22 1031.14 1030.80 1030.15 1029.18 1027.92 1026.45 1024.90 1023.39 1022.06 1021.02 1020.33 1020.00 1020.00 1020.27 1020.70 1021.18 1021.65 1022.03 1022.30 1022.49 1022.61 1022.71 1022.84 1023.03 1023.28 1023.58 1023.91 1024.24 1024.54 1024.79 1025.01 1025.21 1025.44 1025.72 1026.08 1026.53
1030.34 1030.53 1030.68 1030.83 1030.98 1031.13 1031.22 1031.21 1031.03 1030.61 1029.91 1028.93 1027.69 1026.28 1024.79 1023.35 1022.09 1021.09 1020.41 1020.08 1020.05 1020.26 1020.63 1021.06 1021.46 1021.80 1022.04 1022.19 1022.29 1022.38 1022.49 1022.67 1022.90 1023.18 1023.50 1023.82 1024.12 1024.38 1024.61 1024.82 1025.05 1025.32 1025.66 1026.09
1031.07 1031.23 1031.32 1031.37 1031.37 1031.33 1031.23 1031.02 1030.66 1030.10 1029.32 1028.31 1027.11 1025.77 1024.38 1023.06 1021.91 1021.00 1020.38 1020.07 1020.03 1020.20 1020.51 1020.87 1021.21 1021.49 1021.69 1021.82 1021.90 1021.98 1022.08 1022.24 1022.46 1022.73 1023.04 1023.36 1023.67 1023.95 1024.20 1024.44 1024.69 1024.97 1025.31 1025.72
1031.91 1032.04 1032.04 1031.94 1031.75 1031.47 1031.10 1030.63 1030.04 1029.30 1028.39 1027.34 1026.16 1024.92 1023.67 1022.50 1021.49 1020.71 1020.18 1019.91 1019.87 1020.01 1020.26 1020.57 1020.85 1021.08 1021.25 1021.35 1021.42 1021.48 1021.57 1021.72 1021.92 1022.18 1022.49 1022.81 1023.14 1023.45 1023.74 1024.03 1024.32 1024.63 1024.97 1025.37
1032.75 1032.84 1032.74 1032.47 1032.04 1031.49 1030.82 1030.05 1029.19 1028.24 1027.21 1026.11 1024.97 1023.82 1022.72 1021.73 1020.89 1020.25 1019.82 1019.61 1019.58 1019.70 1019.91 1020.15 1020.39 1020.58 1020.71 1020.80 1020.85 1020.91 1020.99 1021.12 1021.31 1021.55 1021.85 1022.18 1022.52 1022.87 1023.21 1023.54 1023.88 1024.23 1024.60 1025.00
1033.50 1033.53 1033.31 1032.85 1032.19 1031.35 1030.38 1029.32 1028.20 1027.06 1025.91 1024.78 1023.68 1022.65 1021.71 1020.89 1020.22 1019.72 1019.40 1019.24 1019.22 1019.32 1019.49 1019.68 1019.86 1020.02 1020.13 1020.20 1020.25 1020.30 1020.37 1020.49 1020.66 1020.88 1021.16 1021.48 1021.83 1022.20 1022.58 1022.97 1023.36 1023.75 1024.16 1024.57
1034.04 1033.99 1033.65 1033.02 1032.12 1031.03 1029.79 1028.48 1027.15 1025.86 1024.64 1023.51 1022.48 1021.58 1020.80 1020.16 1019.65 1019.28 1019.03 1018.91 1018.89 1018.95 1019.07 1019.20 1019.34 1019.46 1019.55 1019.61 1019.67 1019.72 1019.78 1019.88 1020.02 1020.22 1020.47 1020.77 1021.11 1021.49 1021.90 1022.32 1022.75 1023.18 1023.61 1024.03
1034.29 1034.16 1033.68 1032.88 1031.80 1030.49 1029.06 1027.57 1026.11 1024.75 1023.51 1022.43 1021.52 1020.76 1020.14 1019.66 1019.29 1019.01 1018.82 1018.71 1018.66 1018.67 1018.71 1018.78 1018.87 1018.95 1019.02 1019.09 1019.14 1019.20 1019.26 1019.34 1019.46 1019.62 1019.83 1020.09 1020.41 1020.78 1021.18 1021.61 1022.06 1022.52 1022.97 1023.40
1034.21 1033.96 1033.35 1032.41 1031.17 1029.73 1028.17 1026.60 1025.10 1023.75 1022.57 1021.60 1020.83 1020.23 1019.77 1019.43 1019.17 1018.96 1018.79 1018.66 1018.55 1018.48 1018.45 1018.44 1018.46 1018.51 1018.57 1018.63 1018.70 1018.76 1018.82 1018.89 1018.98 1019.11 1019.27 1019.49 1019.76 1020.09 1020.47 1020.90 1021.34 1021.80 1022.25 1022.67
1033.74 1033.36 1032.62 1031.55 1030.22 1028.70 1027.11 1025.55 1024.10 1022.84 1021.79 1020.98 1020.38 1019.95 1019.65 1019.43 1019.25 1019.07 1018.90 1018.72 1018.54 1018.38 1018.25 1018.16 1018.12 1018.13 1018.17 1018.23 1018.30 1018.38 1018.45 1018.52 1018.59 1018.67 1018.79 1018.96 1019.18 1019.46 1019.81 1020.20 1020.62 1021.05 1021.48 1021.88
1032.86 1032.33 1031.46 1030.30 1028.91 1027.39 1025.84 1024.37 1023.05 1021.95 1021.09 1020.47 1020.06 1019.80 1019.64 1019.53 1019.41 1019.25 1019.05 1018.81 1018.55 1018.29 1018.08 1017.91 1017.81 1017.78 1017.80 1017.86 1017.95 1018.03 1018.11 1018.17 1018.23 1018.29 1018.37 1018.49 1018.66 1018.90 1019.19 1019.53 1019.92 1020.31 1020.70 1021.07
1031.57 1030.87 1029.89 1028.66 1027.27 1025.80 1024.36 1023.03 1021.90 1021.01 1020.37 1019.96 1019.74 1019.65 1019.62 1019.59 1019.51 1019.36 1019.14 1018.84 1018.51 1018.18 1017.89 1017.66 1017.51 1017.44 1017.45 1017.51 1017.59 1017.69 1017.77 1017.84 1017.88 1017.92 1017.98 1018.06 1018.19 1018.37 1018.62 1018.92 1019.25 1019.60 1019.95 1020.27
1029.88 1029.02 1027.94 1026.69 1025.33 1023.97 1022.69 1021.57 1020.66 1020.00 1019.58 1019.38 1019.34 1019.39 1019.47 1019.51 1019.47 1019.32 1019.08 1018.75 1018.38 1018.00 1017.66 1017.39 1017.21 1017.12 1017.11 1017.16 1017.25 1017.34 1017.42 1017.48 1017.52 1017.55 1017.58 1017.64 1017.74 1017.89 1018.09 1018.35 1018.64 1018.94 1019.23 1019.50
1027.85 1026.86 1025.71 1024.48 1023.22 1022.02 1020.93 1020.04 1019.38 1018.95 1018.75 1018.73 1018.83 1019.00 1019.15 1019.25 1019.23 1019.10 1018.86 1018.53 1018.15 1017.76 1017.42 1017.14 1016.95 1016.86 1016.84 1016.88 1016.95 1017.03 1017.09 1017.14 1017.16 1017.17 1017.19 1017.23 1017.31 1017.43 1017.61 1017.82 1018.07 1018.32 1018.56 1018.77
1025.58 1024.49 1023.35 1022.20 1021.09 1020.09 1019.25 1018.61 1018.19 1017.98 1017.96 1018.09 1018.30 1018.54 1018.74 1018.86 1018.87 1018.76 1018.54 1018.24 1017.89 1017.54 1017.23 1016.98 1016.81 1016.72 1016.69 1016.71 1016.76 1016.80 1016.83 1016.85 1016.84 1016.83 1016.82 1016.85 1016.90 1017.01 1017.16 1017.34 1017.55 1017.75 1017.93 1018.07
Thickness
5586 5579 5570 5572 5577 5582 5584 5584 5580 5578 5577 5576 5576 5576 5577 5578 5576 5574 5574 5572 5570 5569 5568 5566 5563 5562 5561 5561 5560 5560 5559 5557 5556 5556 5554 5553 5552 5551 5551 5550 5550 5549 5549 5548
5578 5565 5567 5572 5575 5577 5579 5577 5575 5573 5574 5572 5572 5573 5577 5578 5575 5574 5572 5570 5568 5565 5564 5562 5560 5558 5557 5556 5555 5554 5553 5552 5550 5549 5548 5546 5545 5544 5543 5542 5541 5540 5540 5539
5567 5562 5567 5571 5570 5572 5570 5570 5568 5565 5566 5571 5569 5572 5577 5577 5576 5574 5572 5570 5568 5565 5561 5559 5557 5555 5553 5552 5551 5550 5548 5546 5545 5543 5541 5539 5537 5536 5536 5534 5533 5533 5532 5531
5559 5561 5565 5565 5561 5563 5563 5561 5562 5561 5560 5562 5568 5562 5576 5577 5573 5572 5570 5567 5565 5564 5562 5558 5554 5552 5549 5547 5545 5544 5542 5540 5539 5537 5535 5533 5531 5529 5529 5528 5526 5525 5524 5523
5554 5554 5557 5557 5554 5555 5556 5559 5559 5559 5558 5557 5562 5559 5570 5578 5573 5572 5570 5567 5564 5562 5559 5556 5553 5549 5546 5543 5540 5538 5536 5535 5533 5531 5529 5526 5525 5523 5523 5521 5520 5518 5517 5516
5550 5550 5549 5550 5552 5552 5552 5554 5556 5554 5551 5548 5561 5557 5565 5573 5578 5577 5572 5568 5564 5560 5556 5553 5550 5546 5542 5538 5535 5533 5531 5529 5527 5525 5523 5521 5519 5517 5515 5513 5511 5510 5509 5508
5553 5548 5547 5547 5550 5551 5552 5550 5547 5547 5544 5550 5559 5555 5563 5579 5579 5576 5571 5566 5562 5558 5552 5548 5545 5541 5537 5534 5530 5528 5526 5524 5521 5519 5516 5514 5513 5510 5508 5506 5504 5503 5501 5500
5554 5548 5542 5542 5543 5544 5549 5550 5543 5544 5546 5551 5549 5552 5567 5577 5575 5572 5568 5563 5559 5554 5549 5546 5542 5537 5533 5530 5527 5523 5521 5518 5516 5513 5511 5508 5506 5504 5502 5500 5499 5497 5494 5492
5553 5546 5538 5538 5540 5540 5547 5543 5541 5537 5527 5528 5549 5564 5570 5571 5570 5567 5564 5559 5554 5550 5547 5542 5538 5533 5529 5526 5522 5519 5516 5513 5511 5508 5506 5503 5501 5499 5497 5494 5492 5490 5487 5485
5547 5539 5538 5536 5536 5535 5538 5540 5535 5533 5531 5536 5555 5562 5563 5563 5565 5564 5561 5556 5552 5548 5543 5539 5534 5530 5525 5521 5518 5515 5512 5509 5506 5503 5501 5498 5496 5493 5490 5488 5485 5482 5480 5477
5541 5535 5534 5532 5530 5534 5532 5533 5534 5532 5529 5531 5535 5555 5576 5571 5568 5563 5559 5555 5550 5545 5539 5535 5531 5526 5521 5516 5512 5510 5507 5504 5501 5498 5495 5492 5490 5487 5485 5482 5479 5475 5472 5470
5532 5534 5530 5533 5527 5525 5530 5535 5531 5526 5524 5525 5529 5547 5571 5569 5566 5561 5555 5552 5547 5542 5536 5532 5528 5522 5517 5512 5508 5505 5503 5499 5496 5493 5490 5486 5484 5481 5478 5475 5472 5469 5466 5462
5528 5527 5528 5533 5524 5513 5518 5526 5528 5524 5520 5518 5518 5546 5562 5561 5559 5556 5552 5548 5543 5538 5534 5528 5524 5519 5514 5509 5505 5501 5498 5495 5491 5488 5484 5481 5478 5475 5472 5469 5465 5462 5458 5455
5526 5517 5525 5537 5539 5525 5518 5520 5520 5516 5508 5517 5529 5546 5557 5555 5553 5552 5549 5545 5539 5535 5530 5525 5519 5515 5510 5506 5501 5497 5493 5490 5486 5482 5479 5475 5472 5469 5466 5463 5459 5455 5451 5447
5516 5510 5508 5513 5517 5518 5519 5520 5515 5513 5520 5521 5539 5544 5556 5555 5551 5550 5547 5542 5538 5533 5528 5523 5516 5511 5506 5502 5497 5493 5488 5485 5481 5476 5472 5469 5465 5462 5458 5455 5451 5447 5443 5439
5505 5501 5498 5499 5506 5506 5506 5516 5515 5515 5518 5523 5530 5538 5556 5554 5550 5546 5543 5539 5535 5530 5526 5521 5515 5509 5503 5499 5494 5489 5483 5479 5474 5470 5466 5463 5458 5454 5450 5446 5442 5438 5434 5430
5494 5492 5496 5505 5495 5496 5508 5526 5522 5521 5526 5526 5528 5544 5553 5549 5546 5543 5540 5536 5531 5527 5523 5518 5512 5506 5500 5494 5489 5483 5478 5473 5467 5463 5459 5455 5450 5446 5442 5438 5433 5429 5425 5420
5487 5487 5487 5490 5494 5511 5549 5550 5541 5533 5536 5537 5541 5546 5548 5545 5543 5540 5537 5532 5528 5524 5519 5514 5508 5503 5496 5489 5483 5477 5472 5466 5461 5456 5451 5447 5443 5439 5434 5429 5425 5420 5415 5410
5486 5484 5484 5482 5491 5512 5544 5540 5535 5529 5536 5546 5542 5543 5541 5538 5532 5533 5534 5530 5526 5521 5515 5509 5503 5497 5490 5484 5478 5471 5465 5459 5454 5449 5445 5440 5436 5431 5426 5421 5416 5412 5407 5402
5473 5475 5477 5478 5486 5505 5552 5539 5537 5533 5534 5552 5546 5541 5535 5526 5521 5532 5533 5527 5521 5515 5508 5502 5496 5490 5484 5478 5472 5465 5458 5453 5448 5443 5438 5433 5428 5423 5418 5414 5409 5403 5398 5394
5457 5459 5463 5472 5477 5506 5540 5524 5524 5525 5547 5553 5546 5540 5532 5525 5528 5528 5524 5518 5513 5507 5501 5495 5489 5483 5477 5471 5465 5458 5452 5447 5442 5437 5431 5426 5421 5416 5411 5406 5400 5395 5390 5385
5470 5462 5458 5468 5473 5507 5523 5513 5521 5539 5544 5542 5538 5534 5529 5525 5522 5518 5514 5509 5504 5498 5493 5487 5480 5474 5469 5463 5457 5451 5445 5441 5434 5428 5422 5417 5412 5407 5402 5397 5391 5386 5381 5376
5486 5495 5491 5495 5518 5534 5522 5524 5530 5531 5531 5530 5527 5525 5521 5516 5513 5511 5506 5501 5496 5490 5483 5478 5472 5465 5459 5454 5448 5443 5438 5431 5425 5419 5413 5408 5403 5397 5392 5387 5382 5376 5371 5366
5486 5494 5494 5493 5511 5521 5518 5520 5522 5521 5519 5520 5519 5516 5512 5508 5507 5502 5498 5492 5486 5480 5474 5468 5462 5456 5450 5445 5439 5433 5427 5421 5415 5409 5404 5399 5393 5388 5383 5378 5373 5367 5362 5357
5490 5477 5480 5485 5502 5508 5513 5514 5516 5514 5512 5510 5508 5506 5504 5501 5497 5493 5489 5484 5478 5472 5466 5460 5454 5448 5442 5436 5429 5424 5417 5411 5406 5401 5395 5390 5385 5379 5374 5369 5364 5360 5356 5350
5487 5481 5484 5504 5511 5506 5517 5520 5514 5507 5505 5503 5500 5497 5494 5491 5489 5486 5481 5476 5469 5463 5456 5450 5444 5439 5433 5426 5420 5414 5409 5403 5397 5392 5387 5381 5376 5370 5365 5360 5355 5351 5347 5342